Location: Malanoce
(44.2500°N, 7.4667°E)
Time: 21:44:23
(UTC+00:00)

Cosmos 1627 Rocket - Pass Details

Date: 17 November 2025
Orbit: 949 x 1003 km, 82.9° (Epoch: 11 December)

Event Time Altitude Azimuth Distance (km) Brightness Sun altitude
Rises 18:21:25 0° 352° (N) 3,634 7.6 -25.0°
Reaches altitude 10° 18:23:55 10° 354° (N) 2,686 6.8 -25.4°
Maximum altitude 18:30:04 79° 82° (E) 978 4.3 -26.5°
Drops below altitude 10° 18:36:14 10° 169° (S) 2,693 6.7 -27.6°
Sets 18:38:44 0° 170° (S) 3,643 7.4 -28.1°
